Time,TemperatureF,DewpointF,PressureIn,WindDirection,WindDirectionDegrees,WindSpeedMPH,WindSpeedGustMPH,Humidity,HourlyPrecipIn,Conditions,Clouds,dailyrainin,SoftwareType,DateUTC
2013-04-22 00:03:00,56.0,39.0,30.30,SE,142,8.0,21.0,53,0.00,,,0.00,,2013-04-22 04:03:00,
2013-04-22 00:12:00,56.0,39.0,30.30,SE,142,8.0,21.0,53,0.00,,,0.00,,2013-04-22 04:12:00,
2013-04-22 00:23:00,55.0,38.0,30.30,ESE,111,7.0,17.0,53,0.00,,,0.00,,2013-04-22 04:23:00,
2013-04-22 00:33:00,55.0,39.0,30.30,SE,128,8.0,18.0,55,0.00,,,0.00,,2013-04-22 04:33:00,
2013-04-22 00:43:00,55.0,39.0,30.30,SE,128,8.0,18.0,55,0.00,,,0.00,,2013-04-22 04:43:00,
2013-04-22 00:52:00,54.0,39.0,30.30,ESE,111,8.0,16.0,56,0.00,,,0.00,,2013-04-22 04:52:00,
2013-04-22 01:03:00,54.0,39.0,30.29,ESE,118,8.0,16.0,56,0.00,,,0.00,,2013-04-22 05:03:00,
2013-04-22 01:12:00,54.0,39.0,30.29,ESE,118,8.0,16.0,56,0.00,,,0.00,,2013-04-22 05:12:00,
2013-04-22 01:22:00,54.0,40.0,30.29,SE,129,5.0,15.0,58,0.00,,,0.00,,2013-04-22 05:22:00,
2013-04-22 01:33:00,54.0,39.0,30.29,East,101,5.0,16.0,57,0.00,,,0.00,,2013-04-22 05:33:00,
2013-04-22 01:42:00,54.0,39.0,30.29,East,101,5.0,16.0,57,0.00,,,0.00,,2013-04-22 05:42:00,
2013-04-22 01:52:00,54.0,39.0,30.29,ESE,119,5.0,13.0,57,0.00,,,0.00,,2013-04-22 05:52:00,
2013-04-22 02:02:00,53.0,39.0,30.29,ESE,113,3.0,8.0,58,0.00,,,0.00,,2013-04-22 06:02:00,
2013-04-22 02:12:00,53.0,39.0,30.29,ESE,113,3.0,8.0,58,0.00,,,0.00,,2013-04-22 06:12:00,
2013-04-22 02:21:00,53.0,39.0,30.29,SE,140,4.0,7.0,59,0.00,,,0.00,,2013-04-22 06:21:00,
2013-04-22 02:32:00,53.0,39.0,30.29,SE,134,4.0,9.0,59,0.00,,,0.00,,2013-04-22 06:32:00,
2013-04-22 02:42:00,53.0,39.0,30.29,SE,134,4.0,9.0,59,0.00,,,0.00,,2013-04-22 06:42:00,
2013-04-22 02:52:00,52.0,39.0,30.29,SE,146,2.0,9.0,60,0.00,,,0.00,,2013-04-22 06:52:00,
2013-04-22 03:01:00,52.0,39.0,30.28,SE,146,4.0,5.0,61,0.00,,,0.00,,2013-04-22 07:01:00,
2013-04-22 03:12:00,52.0,39.0,30.28,SE,146,4.0,5.0,61,0.00,,,0.00,,2013-04-22 07:12:00,
2013-04-22 03:21:00,52.0,39.0,30.28,SSE,156,3.0,10.0,61,0.00,,,0.00,,2013-04-22 07:21:00,
2013-04-22 03:32:00,52.0,39.0,30.28,SE,146,0.0,7.0,62,0.00,,,0.00,,2013-04-22 07:32:00,
2013-04-22 03:42:00,52.0,39.0,30.28,SE,146,0.0,7.0,62,0.00,,,0.00,,2013-04-22 07:42:00,
2013-04-22 03:52:00,52.0,39.0,30.27,SE,136,5.0,7.0,62,0.00,,,0.00,,2013-04-22 07:52:00,
2013-04-22 04:02:00,51.0,38.0,30.27,SE,136,5.0,7.0,62,0.00,,,0.00,,2013-04-22 08:02:00,
2013-04-22 04:11:00,51.0,38.0,30.27,SE,136,5.0,7.0,62,0.00,,,0.00,,2013-04-22 08:11:00,
2013-04-22 04:22:00,51.0,39.0,30.27,SE,136,3.0,6.0,63,0.00,,,0.00,,2013-04-22 08:22:00,
2013-04-22 04:32:00,51.0,39.0,30.27,SE,136,3.0,6.0,64,0.00,,,0.00,,2013-04-22 08:32:00,
2013-04-22 04:42:00,51.0,39.0,30.27,SE,136,3.0,6.0,64,0.00,,,0.00,,2013-04-22 08:42:00,
2013-04-22 04:52:00,51.0,40.0,30.27,SE,136,3.0,6.0,65,0.00,,,0.00,,2013-04-22 08:52:00,
2013-04-22 05:01:00,50.0,39.0,30.27,SE,136,3.0,6.0,66,0.00,,,0.00,,2013-04-22 09:01:00,
2013-04-22 05:11:00,50.0,39.0,30.27,SE,136,3.0,6.0,66,0.00,,,0.00,,2013-04-22 09:11:00,
2013-04-22 05:21:00,50.0,39.0,30.27,SE,136,3.0,7.0,66,0.00,,,0.00,,2013-04-22 09:21:00,
2013-04-22 05:33:00,49.0,39.0,30.27,SE,136,2.0,5.0,68,0.00,,,0.00,,2013-04-22 09:33:00,
2013-04-22 05:42:00,49.0,39.0,30.27,SE,136,2.0,5.0,68,0.00,,,0.00,,2013-04-22 09:42:00,
2013-04-22 05:52:00,49.0,39.0,30.27,SE,136,4.0,6.0,67,0.00,,,0.00,,2013-04-22 09:52:00,
2013-04-22 06:03:00,50.0,39.0,30.27,SE,136,2.0,5.0,67,0.00,,,0.00,,2013-04-22 10:03:00,
2013-04-22 06:12:00,50.0,39.0,30.27,SE,136,2.0,5.0,67,0.00,,,0.00,,2013-04-22 10:12:00,
2013-04-22 06:22:00,49.0,39.0,30.28,SE,136,3.0,5.0,68,0.00,,,0.00,,2013-04-22 10:22:00,
2013-04-22 06:32:00,49.0,39.0,30.29,SE,141,4.0,8.0,68,0.00,,,0.00,,2013-04-22 10:32:00,
2013-04-22 06:42:00,49.0,39.0,30.29,SE,141,4.0,8.0,68,0.00,,,0.00,,2013-04-22 10:42:00,
2013-04-22 06:52:00,49.0,39.0,30.29,SE,142,3.0,8.0,69,0.00,,,0.00,,2013-04-22 10:52:00,
2013-04-22 07:02:00,49.0,40.0,30.29,SE,144,3.0,6.0,70,0.00,,,0.00,,2013-04-22 11:02:00,
2013-04-22 07:12:00,48.0,39.0,30.30,SE,144,2.0,5.0,70,0.00,,,0.00,,2013-04-22 11:12:00,
2013-04-22 07:22:00,48.0,39.0,30.30,SE,144,2.0,5.0,70,0.00,,,0.00,,2013-04-22 11:22:00,
2013-04-22 07:32:00,49.0,40.0,30.31,SE,136,3.0,11.0,70,0.00,,,0.00,,2013-04-22 11:32:00,
2013-04-22 07:42:00,49.0,40.0,30.31,SE,136,3.0,11.0,70,0.00,,,0.00,,2013-04-22 11:42:00,
2013-04-22 07:52:00,49.0,40.0,30.31,SE,129,4.0,9.0,70,0.00,,,0.00,,2013-04-22 11:52:00,
2013-04-22 08:02:00,49.0,40.0,30.32,SE,128,7.0,10.0,70,0.00,,,0.00,,2013-04-22 12:02:00,
2013-04-22 08:12:00,49.0,40.0,30.32,SE,128,7.0,10.0,70,0.00,,,0.00,,2013-04-22 12:12:00,
2013-04-22 08:21:00,49.0,39.0,30.32,SE,140,5.0,9.0,69,0.00,,,0.00,,2013-04-22 12:21:00,
2013-04-22 08:32:00,50.0,40.0,30.32,SE,138,8.0,13.0,69,0.00,,,0.00,,2013-04-22 12:32:00,
2013-04-22 08:42:00,50.0,40.0,30.32,SE,138,8.0,13.0,69,0.00,,,0.00,,2013-04-22 12:42:00,
2013-04-22 08:52:00,50.0,40.0,30.32,SSE,150,7.0,13.0,69,0.00,,,0.00,,2013-04-22 12:52:00,
2013-04-22 09:01:00,51.0,41.0,30.32,SE,140,6.0,12.0,68,0.00,,,0.00,,2013-04-22 13:01:00,
2013-04-22 09:11:00,51.0,41.0,30.32,SE,140,6.0,12.0,68,0.00,,,0.00,,2013-04-22 13:11:00,
2013-04-22 09:22:00,51.0,41.0,30.32,East,91,5.0,13.0,68,0.00,,,0.00,,2013-04-22 13:22:00,
2013-04-22 09:32:00,50.0,41.0,30.31,SE,130,4.0,13.0,70,0.00,,,0.00,,2013-04-22 13:32:00,
2013-04-22 09:42:00,50.0,41.0,30.31,SE,130,4.0,13.0,70,0.00,,,0.00,,2013-04-22 13:42:00,
2013-04-22 09:52:00,51.0,40.0,30.32,ESE,118,7.0,12.0,67,0.00,,,0.00,,2013-04-22 13:52:00,
2013-04-22 10:02:00,52.0,42.0,30.32,ESE,119,3.0,10.0,69,0.00,,,0.00,,2013-04-22 14:02:00,
2013-04-22 10:12:00,52.0,41.0,30.32,East,92,7.0,12.0,67,0.00,,,0.00,,2013-04-22 14:12:00,
2013-04-22 10:21:00,52.0,41.0,30.32,East,92,7.0,12.0,67,0.00,,,0.00,,2013-04-22 14:21:00,
2013-04-22 10:33:00,52.0,41.0,30.32,SE,128,4.0,10.0,67,0.00,,,0.00,,2013-04-22 14:33:00,
2013-04-22 10:42:00,52.0,41.0,30.32,SE,128,4.0,10.0,67,0.00,,,0.00,,2013-04-22 14:42:00,
2013-04-22 10:52:00,54.0,43.0,30.32,ESE,123,5.0,11.0,65,0.00,,,0.00,,2013-04-22 14:52:00,
2013-04-22 11:02:00,53.0,41.0,30.32,ESE,105,4.0,13.0,63,0.00,,,0.00,,2013-04-22 15:02:00,
2013-04-22 11:12:00,53.0,41.0,30.32,ESE,105,4.0,13.0,63,0.00,,,0.00,,2013-04-22 15:12:00,
2013-04-22 11:22:00,55.0,42.0,30.31,SE,128,6.0,12.0,62,0.00,,,0.00,,2013-04-22 15:22:00,
2013-04-22 11:33:00,56.0,42.0,30.31,ESE,122,4.0,11.0,60,0.00,,,0.00,,2013-04-22 15:33:00,
2013-04-22 11:43:00,56.0,42.0,30.31,ESE,122,4.0,11.0,60,0.00,,,0.00,,2013-04-22 15:43:00,
2013-04-22 11:53:00,56.0,43.0,30.31,East,101,5.0,11.0,61,0.00,,,0.00,,2013-04-22 15:53:00,
2013-04-22 12:03:00,58.0,44.0,30.31,SE,135,3.0,11.0,60,0.00,,,0.00,,2013-04-22 16:03:00,
2013-04-22 12:12:00,58.0,44.0,30.31,SE,135,3.0,11.0,60,0.00,,,0.00,,2013-04-22 16:12:00,
2013-04-22 12:23:00,59.0,44.0,30.31,East,82,5.0,12.0,57,0.00,,,0.00,,2013-04-22 16:23:00,
2013-04-22 12:33:00,59.0,43.0,30.30,ESE,111,5.0,13.0,56,0.00,,,0.00,,2013-04-22 16:33:00,
2013-04-22 12:42:00,59.0,43.0,30.30,ESE,111,5.0,13.0,56,0.00,,,0.00,,2013-04-22 16:42:00,
2013-04-22 12:52:00,60.0,44.0,30.29,ESE,110,3.0,10.0,55,0.00,,,0.00,,2013-04-22 16:52:00,
2013-04-22 13:02:00,60.0,43.0,30.29,ESE,119,5.0,10.0,53,0.00,,,0.00,,2013-04-22 17:02:00,
2013-04-22 13:12:00,60.0,43.0,30.29,ESE,119,5.0,10.0,53,0.00,,,0.00,,2013-04-22 17:12:00,
2013-04-22 13:22:00,60.0,42.0,30.29,ESE,116,3.0,12.0,51,0.00,,,0.00,,2013-04-22 17:22:00,
2013-04-22 13:32:00,62.0,43.0,30.27,SE,146,2.0,13.0,49,0.00,,,0.00,,2013-04-22 17:32:00,
2013-04-22 13:42:00,62.0,43.0,30.27,SE,146,2.0,13.0,49,0.00,,,0.00,,2013-04-22 17:42:00,
2013-04-22 13:52:00,61.0,41.0,30.27,ESE,108,6.0,13.0,47,0.00,,,0.00,,2013-04-22 17:52:00,
2013-04-22 14:02:00,62.0,41.0,30.25,SE,124,6.0,14.0,46,0.00,,,0.00,,2013-04-22 18:02:00,
2013-04-22 14:12:00,62.0,41.0,30.25,SE,124,6.0,14.0,46,0.00,,,0.00,,2013-04-22 18:12:00,
2013-04-22 14:22:00,62.0,40.0,30.25,ESE,115,8.0,17.0,45,0.00,,,0.00,,2013-04-22 18:22:00,
2013-04-22 14:32:00,62.0,41.0,30.24,SE,130,10.0,15.0,46,0.00,,,0.00,,2013-04-22 18:32:00,
2013-04-22 14:42:00,62.0,41.0,30.24,SE,130,10.0,15.0,46,0.00,,,0.00,,2013-04-22 18:42:00,
2013-04-22 14:52:00,63.0,41.0,30.23,ESE,120,6.0,14.0,45,0.00,,,0.00,,2013-04-22 18:52:00,
2013-04-22 15:01:00,64.0,42.0,30.22,East,96,6.0,13.0,45,0.00,,,0.00,,2013-04-22 19:01:00,
2013-04-22 15:12:00,64.0,42.0,30.22,East,96,6.0,13.0,45,0.00,,,0.00,,2013-04-22 19:12:00,
2013-04-22 15:22:00,63.0,41.0,30.22,ESE,122,6.0,15.0,45,0.00,,,0.00,,2013-04-22 19:22:00,
2013-04-22 15:32:00,63.0,41.0,30.21,ESE,123,5.0,18.0,45,0.00,,,0.00,,2013-04-22 19:32:00,
2013-04-22 15:42:00,63.0,41.0,30.21,ESE,123,5.0,18.0,45,0.00,,,0.00,,2013-04-22 19:42:00,
2013-04-22 15:52:00,63.0,42.0,30.20,ESE,115,12.0,20.0,46,0.00,,,0.00,,2013-04-22 19:52:00,
2013-04-22 16:02:00,63.0,42.0,30.19,ENE,71,2.0,13.0,46,0.00,,,0.00,,2013-04-22 20:02:00,
2013-04-22 16:11:00,63.0,42.0,30.19,ENE,71,2.0,13.0,46,0.00,,,0.00,,2013-04-22 20:11:00,
2013-04-22 16:22:00,63.0,41.0,30.19,SE,130,6.0,13.0,45,0.00,,,0.00,,2013-04-22 20:22:00,
2013-04-22 16:32:00,63.0,41.0,30.18,ESE,106,5.0,13.0,45,0.00,,,0.00,,2013-04-22 20:32:00,
2013-04-22 16:42:00,63.0,41.0,30.18,ESE,106,5.0,13.0,45,0.00,,,0.00,,2013-04-22 20:42:00,
2013-04-22 16:52:00,63.0,41.0,30.17,SE,141,8.0,14.0,44,0.00,,,0.00,,2013-04-22 20:52:00,
2013-04-22 17:02:00,63.0,41.0,30.16,ESE,116,6.0,13.0,45,0.00,,,0.00,,2013-04-22 21:02:00,
2013-04-22 17:12:00,63.0,41.0,30.16,ESE,116,6.0,13.0,45,0.00,,,0.00,,2013-04-22 21:12:00,
2013-04-22 17:21:00,64.0,41.0,30.16,SE,125,12.0,16.0,43,0.00,,,0.00,,2013-04-22 21:21:00,
2013-04-22 17:33:00,64.0,41.0,30.16,ESE,115,5.0,11.0,43,0.00,,,0.00,,2013-04-22 21:33:00,
2013-04-22 17:43:00,64.0,41.0,30.16,ESE,115,5.0,11.0,43,0.00,,,0.00,,2013-04-22 21:43:00,
2013-04-22 17:53:00,64.0,41.0,30.16,SE,130,5.0,12.0,43,0.00,,,0.00,,2013-04-22 21:53:00,
2013-04-22 18:03:00,64.0,42.0,30.16,SSE,152,5.0,10.0,44,0.00,,,0.00,,2013-04-22 22:03:00,
2013-04-22 18:12:00,64.0,42.0,30.16,SSE,152,5.0,10.0,44,0.00,,,0.00,,2013-04-22 22:12:00,
2013-04-22 18:22:00,64.0,42.0,30.15,ESE,123,3.0,8.0,44,0.00,,,0.00,,2013-04-22 22:22:00,
2013-04-22 18:33:00,64.0,42.0,30.15,ESE,115,5.0,15.0,44,0.00,,,0.00,,2013-04-22 22:33:00,
2013-04-22 18:42:00,64.0,42.0,30.15,ESE,115,5.0,15.0,44,0.00,,,0.00,,2013-04-22 22:42:00,
2013-04-22 18:52:00,64.0,42.0,30.16,SSE,150,6.0,12.0,44,0.00,,,0.00,,2013-04-22 22:52:00,
2013-04-22 19:02:00,64.0,43.0,30.16,SSE,160,1.0,11.0,46,0.00,,,0.00,,2013-04-22 23:02:00,
2013-04-22 19:11:00,64.0,42.0,30.16,SSE,165,1.0,4.0,45,0.00,,,0.00,,2013-04-22 23:11:00,
2013-04-22 19:22:00,64.0,42.0,30.16,SSE,165,1.0,4.0,45,0.00,,,0.00,,2013-04-22 23:22:00,
2013-04-22 19:33:00,64.0,43.0,30.15,SSE,167,4.0,6.0,47,0.00,,,0.00,,2013-04-22 23:33:00,
2013-04-22 19:42:00,64.0,43.0,30.15,SSE,167,4.0,6.0,47,0.00,,,0.00,,2013-04-22 23:42:00,
2013-04-22 19:52:00,63.0,42.0,30.16,SSE,167,0.0,4.0,47,0.00,,,0.00,,2013-04-22 23:52:00,
2013-04-22 20:02:00,63.0,44.0,30.15,SSE,164,3.0,6.0,49,0.00,,,0.00,,2013-04-23 00:02:00,
2013-04-22 20:12:00,63.0,44.0,30.15,SSE,164,3.0,6.0,49,0.00,,,0.00,,2013-04-23 00:12:00,
2013-04-22 20:21:00,63.0,44.0,30.15,SSE,161,2.0,6.0,50,0.00,,,0.00,,2013-04-23 00:21:00,
2013-04-22 20:32:00,63.0,44.0,30.15,SSE,153,2.0,8.0,50,0.00,,,0.00,,2013-04-23 00:32:00,
2013-04-22 20:42:00,63.0,44.0,30.15,SSE,153,2.0,8.0,50,0.00,,,0.00,,2013-04-23 00:42:00,
2013-04-22 20:51:00,63.0,45.0,30.15,SSE,153,4.0,7.0,51,0.00,,,0.00,,2013-04-23 00:51:00,
2013-04-22 21:01:00,62.0,45.0,30.15,SSE,161,1.0,5.0,53,0.00,,,0.00,,2013-04-23 01:01:00,
2013-04-22 21:11:00,62.0,45.0,30.15,SSE,161,1.0,5.0,53,0.00,,,0.00,,2013-04-23 01:11:00,
2013-04-22 21:21:00,61.0,44.0,30.16,SSE,161,0.0,5.0,54,0.00,,,0.00,,2013-04-23 01:21:00,
2013-04-22 21:32:00,61.0,45.0,30.16,SSW,193,0.0,5.0,55,0.00,,,0.00,,2013-04-23 01:32:00,
2013-04-22 21:42:00,61.0,45.0,30.16,SSW,193,0.0,5.0,55,0.00,,,0.00,,2013-04-23 01:42:00,
2013-04-22 21:52:00,61.0,45.0,30.16,South,173,2.0,5.0,55,0.00,,,0.00,,2013-04-23 01:52:00,
2013-04-22 22:02:00,61.0,45.0,30.17,SE,134,4.0,6.0,56,0.00,,,0.00,,2013-04-23 02:02:00,
2013-04-22 22:12:00,61.0,45.0,30.17,SE,134,4.0,6.0,56,0.00,,,0.00,,2013-04-23 02:12:00,
2013-04-22 22:21:00,61.0,45.0,30.17,SSE,168,3.0,7.0,56,0.00,,,0.00,,2013-04-23 02:21:00,
2013-04-22 22:32:00,60.0,45.0,30.17,South,171,0.0,6.0,58,0.00,,,0.00,,2013-04-23 02:32:00,
2013-04-22 22:42:00,60.0,45.0,30.17,South,171,0.0,6.0,58,0.00,,,0.00,,2013-04-23 02:42:00,
2013-04-22 22:52:00,60.0,46.0,30.18,South,171,0.0,3.0,59,0.00,,,0.00,,2013-04-23 02:52:00,
2013-04-22 23:02:00,60.0,46.0,30.18,South,169,3.0,7.0,59,0.00,,,0.00,,2013-04-23 03:02:00,
2013-04-22 23:11:00,60.0,46.0,30.18,South,169,3.0,7.0,59,0.00,,,0.00,,2013-04-23 03:11:00,
2013-04-22 23:21:00,60.0,46.0,30.18,SSE,165,4.0,7.0,59,0.00,,,0.00,,2013-04-23 03:21:00,
2013-04-22 23:33:00,60.0,46.0,30.18,SE,129,4.0,11.0,60,0.00,,,0.00,,2013-04-23 03:33:00,
2013-04-22 23:43:00,60.0,46.0,30.18,SE,129,4.0,11.0,60,0.00,,,0.00,,2013-04-23 03:43:00,
2013-04-22 23:53:00,59.0,46.0,30.19,SE,134,3.0,7.0,61,0.00,,,0.00,,2013-04-23 03:53:00,